Time,TemperatureF,DewpointF,PressureIn,WindDirection,WindDirectionDegrees,WindSpeedMPH,WindSpeedGustMPH,Humidity,HourlyPrecipIn,Conditions,Clouds,dailyrainin,SoftwareType,DateUTC
2013-03-06 00:07:00,43.3,40.0,29.53,East,88,0.0,0.0,89,0.00,,,0.00,weatherlink.com 1.10,2013-03-06 00:07:00,
2013-03-06 00:22:00,43.2,40.0,29.53,East,88,0.0,0.0,89,0.00,,,0.00,weatherlink.com 1.10,2013-03-06 00:22:00,
2013-03-06 00:37:00,43.3,40.0,29.52,East,92,0.0,0.0,89,0.00,,,0.00,weatherlink.com 1.10,2013-03-06 00:37:00,
2013-03-06 00:52:00,43.2,40.0,29.52,South,181,0.0,0.0,89,0.00,,,0.00,weatherlink.com 1.10,2013-03-06 00:52:00,
2013-03-06 01:07:00,43.0,40.0,29.52,South,181,0.0,0.0,89,0.00,,,0.00,weatherlink.com 1.10,2013-03-06 01:07:00,
2013-03-06 01:22:00,43.1,40.0,29.52,SSW,192,0.0,0.0,89,0.00,,,0.00,weatherlink.com 1.10,2013-03-06 01:22:00,
2013-03-06 01:37:00,43.1,40.0,29.51,NE,48,0.0,1.0,89,0.00,,,0.00,weatherlink.com 1.10,2013-03-06 01:37:00,
2013-03-06 01:52:00,43.1,40.0,29.51,NE,49,0.0,0.0,89,0.00,,,0.00,weatherlink.com 1.10,2013-03-06 01:52:00,
2013-03-06 02:07:00,43.2,40.0,29.51,NE,47,0.0,1.0,89,0.00,,,0.00,weatherlink.com 1.10,2013-03-06 02:07:00,
2013-03-06 02:22:00,43.3,40.0,29.51,NE,49,0.0,1.0,89,0.00,,,0.00,weatherlink.com 1.10,2013-03-06 02:22:00,
2013-03-06 02:37:00,43.4,40.0,29.50,NNW,335,0.0,0.0,89,0.00,,,0.00,weatherlink.com 1.10,2013-03-06 02:37:00,
2013-03-06 02:52:00,43.3,41.0,29.50,NNW,346,0.0,0.0,90,0.00,,,0.00,weatherlink.com 1.10,2013-03-06 02:52:00,
2013-03-06 03:07:00,43.2,41.0,29.49,North,353,0.0,1.0,90,0.00,,,0.00,weatherlink.com 1.10,2013-03-06 03:07:00,
2013-03-06 03:22:00,43.1,40.0,29.49,North,356,0.0,1.0,90,0.00,,,0.00,weatherlink.com 1.10,2013-03-06 03:22:00,
2013-03-06 03:37:00,43.2,41.0,29.48,NE,45,0.0,1.0,90,0.00,,,0.00,weatherlink.com 1.10,2013-03-06 03:37:00,
2013-03-06 03:52:00,43.3,41.0,29.48,North,8,0.0,2.0,91,0.00,,,0.00,weatherlink.com 1.10,2013-03-06 03:52:00,
2013-03-06 04:07:00,43.3,41.0,29.47,NE,46,0.0,2.0,91,0.00,,,0.00,weatherlink.com 1.10,2013-03-06 04:07:00,
2013-03-06 04:22:00,43.3,41.0,29.47,NE,53,1.0,3.0,91,0.00,,,0.00,weatherlink.com 1.10,2013-03-06 04:22:00,
2013-03-06 04:37:00,43.2,41.0,29.47,NNE,29,0.0,1.0,91,0.00,,,0.00,weatherlink.com 1.10,2013-03-06 04:37:00,
2013-03-06 04:52:00,43.2,41.0,29.46,ENE,69,1.0,4.0,92,0.00,,,0.00,weatherlink.com 1.10,2013-03-06 04:52:00,
2013-03-06 05:07:00,43.3,41.0,29.46,East,90,0.0,2.0,92,0.00,,,0.00,weatherlink.com 1.10,2013-03-06 05:07:00,
2013-03-06 05:22:00,43.5,41.0,29.46,SSE,153,0.0,3.0,92,0.00,,,0.00,weatherlink.com 1.10,2013-03-06 05:22:00,
2013-03-06 05:37:00,43.6,42.0,29.47,East,96,0.0,0.0,93,0.00,,,0.00,weatherlink.com 1.10,2013-03-06 05:37:00,
2013-03-06 05:52:00,43.9,42.0,29.46,ENE,65,0.0,4.0,93,0.00,,,0.00,weatherlink.com 1.10,2013-03-06 05:52:00,
2013-03-06 06:07:00,43.9,42.0,29.46,NE,53,0.0,1.0,93,0.00,,,0.00,weatherlink.com 1.10,2013-03-06 06:07:00,
2013-03-06 06:22:00,43.9,42.0,29.46,East,98,0.0,0.0,93,0.00,,,0.00,weatherlink.com 1.10,2013-03-06 06:22:00,
2013-03-06 06:37:00,44.0,42.0,29.47,SE,134,0.0,1.0,93,0.00,,,0.00,weatherlink.com 1.10,2013-03-06 06:37:00,
2013-03-06 06:52:00,44.1,42.0,29.47,SE,138,0.0,1.0,93,0.00,,,0.00,weatherlink.com 1.10,2013-03-06 06:52:00,
2013-03-06 07:07:00,44.3,42.0,29.47,SW,229,0.0,2.0,93,0.00,,,0.00,weatherlink.com 1.10,2013-03-06 07:07:00,
2013-03-06 07:22:00,44.5,43.0,29.47,SE,126,1.0,4.0,93,0.00,,,0.00,weatherlink.com 1.10,2013-03-06 07:22:00,
2013-03-06 07:37:00,44.6,43.0,29.47,East,97,4.0,6.0,93,0.00,,,0.00,weatherlink.com 1.10,2013-03-06 07:37:00,
2013-03-06 07:52:00,44.7,43.0,29.48,SE,131,1.0,3.0,93,0.00,,,0.00,weatherlink.com 1.10,2013-03-06 07:52:00,
2013-03-06 09:03:00,45.3,43.0,29.48,SE,134,1.0,3.0,92,0.00,,,0.00,weatherlink.com 1.10,2013-03-06 09:03:00,
2013-03-06 09:22:00,45.7,44.0,29.48,SE,132,1.0,3.0,92,0.00,,,0.00,weatherlink.com 1.10,2013-03-06 09:22:00,
2013-03-06 09:37:00,45.7,43.0,29.48,SE,131,0.0,4.0,91,0.00,,,0.00,weatherlink.com 1.10,2013-03-06 09:37:00,
2013-03-06 09:52:00,46.1,44.0,29.48,SE,143,3.0,6.0,91,0.00,,,0.00,weatherlink.com 1.10,2013-03-06 09:52:00,
2013-03-06 10:07:00,46.1,44.0,29.48,SE,131,4.0,5.0,91,0.00,,,0.00,weatherlink.com 1.10,2013-03-06 10:07:00,
2013-03-06 10:23:00,45.9,44.0,29.48,SSE,148,1.0,6.0,91,0.00,,,0.00,weatherlink.com 1.10,2013-03-06 10:23:00,
2013-03-06 10:38:00,46.2,44.0,29.48,SE,127,2.0,5.0,91,0.00,,,0.00,weatherlink.com 1.10,2013-03-06 10:38:00,
2013-03-06 10:53:00,46.8,44.0,29.48,SE,132,0.0,4.0,91,0.00,,,0.00,weatherlink.com 1.10,2013-03-06 10:53:00,
2013-03-06 11:08:00,47.3,45.0,29.48,SE,132,1.0,5.0,90,0.00,,,0.00,weatherlink.com 1.10,2013-03-06 11:08:00,
2013-03-06 11:23:00,47.4,44.0,29.48,NE,53,2.0,3.0,89,0.00,,,0.00,weatherlink.com 1.10,2013-03-06 11:23:00,
2013-03-06 11:38:00,47.4,44.0,29.48,SE,126,1.0,4.0,89,0.00,,,0.00,weatherlink.com 1.10,2013-03-06 11:38:00,
2013-03-06 11:53:00,47.4,44.0,29.48,ESE,121,0.0,6.0,89,0.00,,,0.00,weatherlink.com 1.10,2013-03-06 11:53:00,
2013-03-06 12:08:00,47.6,45.0,29.48,SE,128,1.0,5.0,89,0.00,,,0.00,weatherlink.com 1.10,2013-03-06 12:08:00,
2013-03-06 12:23:00,47.5,45.0,29.48,ESE,115,0.0,3.0,89,0.00,,,0.00,weatherlink.com 1.10,2013-03-06 12:23:00,
2013-03-06 12:38:00,47.1,44.0,29.48,ESE,116,0.0,2.0,89,0.01,,,0.01,weatherlink.com 1.10,2013-03-06 12:38:00,
2013-03-06 12:53:00,46.8,44.0,29.48,SE,127,0.0,2.0,90,0.01,,,0.01,weatherlink.com 1.10,2013-03-06 12:53:00,
2013-03-06 13:08:00,46.5,44.0,29.47,ESE,117,0.0,3.0,90,0.02,,,0.02,weatherlink.com 1.10,2013-03-06 13:08:00,
2013-03-06 13:23:00,46.3,44.0,29.47,South,186,0.0,2.0,91,0.02,,,0.02,weatherlink.com 1.10,2013-03-06 13:23:00,
2013-03-06 13:38:00,46.2,44.0,29.46,ESE,117,1.0,4.0,91,0.01,,,0.02,weatherlink.com 1.10,2013-03-06 13:38:00,
2013-03-06 13:53:00,45.9,44.0,29.46,SE,143,2.0,5.0,91,0.01,,,0.02,weatherlink.com 1.10,2013-03-06 13:53:00,
2013-03-06 14:08:00,45.7,44.0,29.46,SE,129,2.0,5.0,92,0.00,,,0.02,weatherlink.com 1.10,2013-03-06 14:08:00,
2013-03-06 14:23:00,45.6,44.0,29.46,SSE,153,1.0,4.0,92,0.00,,,0.02,weatherlink.com 1.10,2013-03-06 14:23:00,
2013-03-06 14:38:00,45.4,43.0,29.46,ESE,122,0.0,5.0,92,0.00,,,0.02,weatherlink.com 1.10,2013-03-06 14:38:00,
2013-03-06 14:53:00,45.4,43.0,29.46,SE,131,0.0,4.0,92,0.00,,,0.02,weatherlink.com 1.10,2013-03-06 14:53:00,
2013-03-06 15:08:00,45.5,43.0,29.45,ENE,76,0.0,4.0,92,0.00,,,0.02,weatherlink.com 1.10,2013-03-06 15:08:00,
2013-03-06 15:23:00,45.3,43.0,29.45,ESE,118,0.0,3.0,92,0.01,,,0.02,weatherlink.com 1.10,2013-03-06 15:23:00,
2013-03-06 15:38:00,45.4,44.0,29.45,ESE,116,1.0,2.0,93,0.01,,,0.02,weatherlink.com 1.10,2013-03-06 15:38:00,
2013-03-06 15:53:00,45.2,43.0,29.45,SW,215,0.0,3.0,92,0.01,,,0.02,weatherlink.com 1.10,2013-03-06 15:53:00,
2013-03-06 16:08:00,44.9,43.0,29.45,East,84,0.0,5.0,93,0.01,,,0.02,weatherlink.com 1.10,2013-03-06 16:08:00,
2013-03-06 16:23:00,45.0,43.0,29.45,East,100,0.0,2.0,93,0.01,,,0.03,weatherlink.com 1.10,2013-03-06 16:23:00,
2013-03-06 16:38:00,45.1,43.0,29.45,NE,51,0.0,2.0,93,0.01,,,0.03,weatherlink.com 1.10,2013-03-06 16:38:00,
2013-03-06 16:53:00,45.0,43.0,29.45,South,186,0.0,5.0,93,0.01,,,0.03,weatherlink.com 1.10,2013-03-06 16:53:00,
2013-03-06 17:23:00,45.2,43.0,29.45,East,99,0.0,1.0,93,0.00,,,0.03,weatherlink.com 1.10,2013-03-06 17:23:00,
2013-03-06 17:38:00,45.1,43.0,29.45,East,89,3.0,3.0,93,0.00,,,0.03,weatherlink.com 1.10,2013-03-06 17:38:00,
2013-03-06 17:53:00,45.0,43.0,29.45,SE,144,2.0,4.0,93,0.00,,,0.03,weatherlink.com 1.10,2013-03-06 17:53:00,
2013-03-06 18:09:00,45.0,43.0,29.45,SE,127,1.0,4.0,93,0.00,,,0.03,weatherlink.com 1.10,2013-03-06 18:09:00,
2013-03-06 18:23:00,44.9,43.0,29.45,East,86,1.0,4.0,93,0.00,,,0.03,weatherlink.com 1.10,2013-03-06 18:23:00,
2013-03-06 18:38:00,44.9,43.0,29.45,SE,131,2.0,5.0,93,0.00,,,0.03,weatherlink.com 1.10,2013-03-06 18:38:00,
2013-03-06 18:54:00,45.0,43.0,29.45,ESE,111,1.0,4.0,93,0.00,,,0.03,weatherlink.com 1.10,2013-03-06 18:54:00,
2013-03-06 19:09:00,45.0,43.0,29.45,SE,129,1.0,2.0,93,0.00,,,0.03,weatherlink.com 1.10,2013-03-06 19:09:00,
2013-03-06 19:24:00,45.1,43.0,29.45,NE,45,0.0,3.0,93,0.01,,,0.04,weatherlink.com 1.10,2013-03-06 19:24:00,
2013-03-06 19:39:00,45.1,43.0,29.45,SSE,150,1.0,2.0,93,0.01,,,0.04,weatherlink.com 1.10,2013-03-06 19:39:00,
2013-03-06 19:54:00,45.1,43.0,29.45,SE,128,0.0,3.0,93,0.02,,,0.05,weatherlink.com 1.10,2013-03-06 19:54:00,
2013-03-06 20:09:00,45.0,43.0,29.45,SE,127,0.0,3.0,93,0.02,,,0.06,weatherlink.com 1.10,2013-03-06 20:09:00,
2013-03-06 20:24:00,45.0,43.0,29.45,East,83,0.0,2.0,93,0.02,,,0.01,weatherlink.com 1.10,2013-03-06 20:24:00,
2013-03-06 20:39:00,45.0,43.0,29.45,East,97,0.0,2.0,94,0.02,,,0.01,weatherlink.com 1.10,2013-03-06 20:39:00,
2013-03-06 20:54:00,45.1,44.0,29.45,SE,128,0.0,2.0,94,0.02,,,0.02,weatherlink.com 1.10,2013-03-06 20:54:00,
2013-03-06 21:09:00,45.3,44.0,29.45,SE,124,0.0,2.0,94,0.02,,,0.02,weatherlink.com 1.10,2013-03-06 21:09:00,
2013-03-06 21:24:00,45.5,44.0,29.45,ENE,76,2.0,3.0,94,0.02,,,0.03,weatherlink.com 1.10,2013-03-06 21:24:00,
2013-03-06 21:39:00,45.2,44.0,29.44,ESE,120,1.0,2.0,94,0.03,,,0.04,weatherlink.com 1.10,2013-03-06 21:39:00,
2013-03-06 21:54:00,45.0,43.0,29.45,SE,136,0.0,3.0,94,0.02,,,0.04,weatherlink.com 1.10,2013-03-06 21:54:00,
2013-03-06 22:09:00,44.9,43.0,29.44,East,99,0.0,2.0,94,0.02,,,0.04,weatherlink.com 1.10,2013-03-06 22:09:00,
2013-03-06 22:24:00,45.0,43.0,29.44,ENE,77,2.0,2.0,94,0.02,,,0.05,weatherlink.com 1.10,2013-03-06 22:24:00,
2013-03-06 22:39:00,45.1,44.0,29.44,SE,126,1.0,5.0,94,0.02,,,0.06,weatherlink.com 1.10,2013-03-06 22:39:00,
2013-03-06 22:54:00,45.1,44.0,29.44,East,94,0.0,3.0,94,0.03,,,0.07,weatherlink.com 1.10,2013-03-06 22:54:00,
2013-03-06 23:09:00,45.1,44.0,29.44,SE,145,0.0,3.0,94,0.04,,,0.08,weatherlink.com 1.10,2013-03-06 23:09:00,
2013-03-06 23:24:00,44.9,43.0,29.43,SE,131,0.0,2.0,94,0.04,,,0.09,weatherlink.com 1.10,2013-03-06 23:24:00,
2013-03-06 23:39:00,44.9,43.0,29.43,ESE,114,1.0,2.0,94,0.04,,,0.09,weatherlink.com 1.10,2013-03-06 23:39:00,
2013-03-06 23:54:00,44.8,43.0,29.43,ESE,116,1.0,3.0,94,0.04,,,0.11,weatherlink.com 1.10,2013-03-06 23:54:00,